KLM22 EBCI-EGBB

Flight info

Callsign KLM22
Flight time N/A
Altitude 38000
Route CIV UY50 LUMEN L610 LAM DCT SILVA
Aircraft B738/M-SDE2E3FGHIRWXY/LB1

Departure

Time 2026-05-06 16:48
Airport Brussels South Charleroi Airport (EBCI)

Arrival

Time N/A
Airport Birmingham Airport (EGBB)
Time Latitude Longitude Altitude Speed Heading
2026-05-06 16:25 50.46663 4.46415 621 ft 0 kts 336°
2026-05-06 16:38 50.46661 4.46416 614 ft 2 kts 336°
2026-05-06 16:38 50.46647 4.46426 632 ft 2 kts 335°
2026-05-06 16:38 50.46631 4.46434 629 ft 2 kts
2026-05-06 16:38 50.46617 4.46424 623 ft 2 kts 45°
2026-05-06 16:39 50.46613 4.46417 628 ft 0 kts 61°
2026-05-06 16:42 50.46623 4.46457 621 ft 9 kts 75°
2026-05-06 16:43 50.46595 4.46539 617 ft 9 kts 151°
2026-05-06 16:43 50.46556 4.46612 621 ft 10 kts 90°
2026-05-06 16:43 50.46583 4.46722 620 ft 12 kts 68°
2026-05-06 16:43 50.46600 4.46780 622 ft 0 kts 64°
2026-05-06 16:44 50.46603 4.46791 620 ft 3 kts 63°
2026-05-06 16:44 50.46628 4.46873 622 ft 14 kts 66°
2026-05-06 16:44 50.46669 4.47017 614 ft 15 kts 65°
2026-05-06 16:45 50.46710 4.47158 613 ft 14 kts 66°
2026-05-06 16:45 50.46750 4.47293 614 ft 13 kts 65°
2026-05-06 16:45 50.46787 4.47424 610 ft 13 kts 68°
2026-05-06 16:45 50.46821 4.47552 612 ft 13 kts 68°
2026-05-06 16:46 50.46809 4.47675 610 ft 12 kts 141°
2026-05-06 16:46 50.46790 4.47692 610 ft 0 kts 155°
2026-05-06 16:46 50.46786 4.47695 609 ft 2 kts 155°
2026-05-06 16:47 50.46753 4.47719 610 ft 7 kts 155°
2026-05-06 16:47 50.46709 4.47737 618 ft 7 kts 185°
2026-05-06 16:47 50.46676 4.47679 606 ft 14 kts 242°
2026-05-06 16:47 50.46595 4.47385 620 ft 75 kts 246°
2026-05-06 16:48 50.46259 4.46224 632 ft 155 kts 246°
2026-05-06 16:48 50.45740 4.44554 1294 ft 181 kts 246°
2026-05-06 16:48 50.45182 4.42679 2328 ft 192 kts 249°
2026-05-06 16:48 50.44611 4.40624 3010 ft 218 kts 249°
2026-05-06 16:49 50.43959 4.38300 3421 ft 241 kts 248°
2026-05-06 16:49 50.43242 4.35783 3947 ft 263 kts 248°
2026-05-06 16:49 50.42487 4.33161 4851 ft 269 kts 248°
2026-05-06 16:49 50.41711 4.30481 5891 ft 270 kts 248°
2026-05-06 16:50 50.41110 4.27703 6841 ft 271 kts 268°
2026-05-06 16:50 50.41495 4.24875 7742 ft 269 kts 302°
2026-05-06 16:50 50.42724 4.22669 8682 ft 270 kts 316°
2026-05-06 16:50 50.44085 4.20589 9581 ft 275 kts 316°
2026-05-06 16:51 50.45475 4.18469 10324 ft 285 kts 316°
2026-05-06 16:51 50.46965 4.16194 10541 ft 312 kts 316°
2026-05-06 16:51 50.48579 4.13717 10874 ft 333 kts 316°
2026-05-06 16:51 50.50255 4.11131 11561 ft 341 kts 316°
2026-05-06 16:52 50.51956 4.08497 12371 ft 345 kts 315°
2026-05-06 16:52 50.53675 4.05826 13221 ft 349 kts 315°
2026-05-06 16:52 50.55388 4.03156 13998 ft 353 kts 315°
2026-05-06 16:52 50.57142 4.00417 14707 ft 357 kts 315°
2026-05-06 16:53 50.58918 3.97637 15445 ft 361 kts 315°
2026-05-06 16:53 50.60704 3.94839 16185 ft 364 kts 314°
2026-05-06 16:53 50.62511 3.92003 16880 ft 369 kts 314°
2026-05-06 16:53 50.64341 3.89128 17561 ft 374 kts 314°
2026-05-06 16:54 50.66191 3.86218 18253 ft 378 kts 314°
2026-05-06 16:54 50.68062 3.83273 18870 ft 381 kts 314°
2026-05-06 16:54 50.69943 3.80307 19491 ft 384 kts 314°
2026-05-06 16:54 50.71811 3.77360 20090 ft 387 kts 314°
2026-05-06 16:55 50.73722 3.74340 20681 ft 391 kts 314°
2026-05-06 16:55 50.75652 3.71287 21313 ft 392 kts 314°
2026-05-06 16:55 50.77586 3.68222 21880 ft 396 kts 314°
2026-05-06 16:55 50.79547 3.65113 22399 ft 401 kts 314°
2026-05-06 16:56 50.81528 3.61967 22931 ft 405 kts 314°
2026-05-06 16:56 50.83520 3.58798 23497 ft 407 kts 313°
2026-05-06 16:56 50.85522 3.55611 24012 ft 409 kts 313°
2026-05-06 16:56 50.87529 3.52411 24488 ft 411 kts 313°
2026-05-06 16:57 50.89536 3.49209 24871 ft 416 kts 313°
2026-05-06 16:57 50.91579 3.45944 25286 ft 419 kts 313°
2026-05-06 16:57 50.93627 3.42665 25806 ft 419 kts 313°
2026-05-06 16:57 50.95681 3.39374 26256 ft 421 kts 313°
2026-05-06 16:58 50.97752 3.36051 26601 ft 426 kts 313°
2026-05-06 16:58 50.99847 3.32682 26979 ft 429 kts 313°
2026-05-06 16:58 51.01951 3.29298 27351 ft 432 kts 313°
2026-05-06 16:58 51.04063 3.25896 27862 ft 431 kts 313°
2026-05-06 16:59 51.06173 3.22491 28281 ft 433 kts 313°
2026-05-06 16:59 51.08279 3.19088 28522 ft 439 kts 313°
2026-05-06 16:59 51.10429 3.15609 28931 ft 440 kts 313°